Location: Rounton
(54.4000°N, 1.3500°W)
Time: 10:34:03
(UTC+01:00)

Vanguard 3 - Visible Passes

Search period start: 22 April 2024 00:00
Search period end: 02 May 2024 00:00
Orbit: 510 x 3235 km, 33.3° (Epoch: 21 April)

Date Brightness Start Highest point End Pass type
(mag) Time Alt. Az. Time Alt. Az. Time Alt. Az.
22 Apr 10.5 03:52:24 10° SSW 04:00:26 17° SSE 04:06:46 10° SE visible
23 Apr 10.7 02:38:37 12° SSE 02:42:30 14° SSE 02:48:09 10° SE visible
23 Apr 10.2 04:44:29 10° SW 04:54:13 21° S 05:01:15 10° SE visible
24 Apr 10.4 03:28:57 14° SSW 03:36:17 20° SSE 03:44:03 10° ESE visible
25 Apr 10.7 02:14:59 16° SSE 02:18:06 17° SSE 02:25:41 10° ESE visible
25 Apr 10.2 04:19:10 11° SW 04:30:04 25° S 04:38:15 10° SE visible
26 Apr 10.9 01:00:55 12° SE 01:00:55 12° SE 01:04:29 10° SE visible
26 Apr 10.4 03:05:05 18° SSW 03:11:53 23° SSE 03:20:59 10° ESE visible
27 Apr 10.6 01:50:55 19° SSE 01:53:30 19° SSE 02:02:38 10° ESE visible
27 Apr 10.2 03:55:05 14° SW 04:05:43 27° S 04:15:01 10° ESE visible
28 Apr 10.9 00:36:38 14° SE 00:36:38 14° SE 00:42:13 10° ESE visible
28 Apr 10.4 02:40:47 21° SSW 02:47:17 26° SSE 02:57:36 10° ESE visible
28 Apr 10.1 04:46:34 10° SW 04:59:25 29° S 05:08:22 10° SE visible
29 Apr 10.6 01:26:22 21° SSE 01:28:42 22° SSE 01:39:10 10° ESE visible
29 Apr 10.2 03:30:30 16° SW 03:41:07 30° S 03:51:33 10° ESE visible
30 Apr 10.8 00:11:47 16° SE 00:11:47 16° SE 00:18:58 10° ESE visible
30 Apr 10.4 02:15:55 23° SSW 02:22:27 28° SSE 02:33:57 10° ESE visible
30 Apr 10.1 04:20:46 10° WSW 04:34:52 31° S 04:44:51 10° SE visible
01 May 10.5 01:01:08 23° SSE 01:03:41 24° SSE 01:15:21 10° ESE visible
01 May 10.2 03:05:13 18° SW 03:16:18 32° S 03:27:50 10° ESE visible
